• Em Portugal
  • Lista de países
  • Para 7 dias
  • Temperatura da água
  • Mapas de satélite
  • Mapa do tempo
  • Widgets de tempo
  • user-avatar
    Iniciar Sessão

    Previsão horária em La Massana

    Hoje, 17 Dezembro, Domingo

    Tempo Temperatura Precipitação Vento Pressão Humidade
    00:00 -10°C° 0 mm 3 m/s 610 mmHg 77%
    01:00 -10°C° 0 mm 3 m/s 610 mmHg 77%
    02:00 -10°C° 0 mm 3 m/s 610 mmHg 76%
    03:00 -12°C° 0 mm 3 m/s 610 mmHg 76%
    04:00 -12°C° 0 mm 3 m/s 610 mmHg 75%
    05:00 -12°C° 0 mm 3 m/s 611 mmHg 74%
    06:00 -12°C° 0 mm 3 m/s 611 mmHg 73%
    07:00 -10°C° 0 mm 3 m/s 611 mmHg 70%
    08:00 -9°C° 0 mm 3 m/s 612 mmHg 67%
    09:00 -8°C° 0 mm 3 m/s 613 mmHg 64%
    10:00 -7°C° 0 mm 3 m/s 614 mmHg 61%
    11:00 -5°C° 0 mm 3 m/s 614 mmHg 58%
    12:00 -4°C° 0 mm 3 m/s 615 mmHg 54%
    13:00 -4°C° 0 mm 3 m/s 615 mmHg 58%
    14:00 -4°C° 0 mm 3 m/s 614 mmHg 61%
    15:00 -5°C° 0 mm 3 m/s 614 mmHg 64%
    16:00 -5°C° 0 mm 3 m/s 614 mmHg 69%
    17:00 -6°C° 0 mm 3 m/s 614 mmHg 74%
    18:00 -7°C° 0 mm 3 m/s 614 mmHg 78%
    19:00 -7°C° 0 mm 3 m/s 614 mmHg 79%
    20:00 -6°C° 0 mm 3 m/s 615 mmHg 80%
    21:00 -6°C° 0 mm 3 m/s 615 mmHg 81%
    22:00 -6°C° 0 mm 3 m/s 615 mmHg 81%
    23:00 -6°C° 0 mm 3 m/s 615 mmHg 82%

    Amanhã, 18 Dezembro, Segunda-feira

    Tempo Temperatura Precipitação Vento Pressão Humidade
    00:00 -6°C° 0 mm 3 m/s 616 mmHg 82%
    01:00 -7°C° 0 mm 3 m/s 615 mmHg 82%
    02:00 -7°C° 0 mm 3 m/s 615 mmHg 83%
    03:00 -6°C° 0 mm 2 m/s 615 mmHg 84%
    04:00 -7°C° 0 mm 3 m/s 615 mmHg 84%
    05:00 -8°C° 0 mm 3 m/s 615 mmHg 83%
    06:00 -8°C° 0 mm 3 m/s 615 mmHg 83%
    07:00 -7°C° 0 mm 3 m/s 615 mmHg 80%
    08:00 -6°C° 0 mm 3 m/s 616 mmHg 77%
    09:00 -5°C° 0 mm 3 m/s 616 mmHg 74%
    10:00 -2°C° 0 mm 3 m/s 617 mmHg 72%
    11:00 -1°C° 0 mm 3 m/s 617 mmHg 69%
    12:00 0°C° 0 mm 3 m/s 617 mmHg 67%
    13:00 0°C° 0 mm 3 m/s 617 mmHg 69%
    14:00 0°C° 0 mm 3 m/s 616 mmHg 71%
    15:00 0°C° 0 mm 3 m/s 616 mmHg 73%
    16:00 -1°C° 0,2 mm 3 m/s 615 mmHg 76%
    17:00 -2°C° 0,2 mm 3 m/s 615 mmHg 80%
    18:00 -2°C° 0,2 mm 3 m/s 614 mmHg 84%
    19:00 -3°C° 0,3 mm 4 m/s 614 mmHg 85%
    20:00 -3°C° 0,3 mm 4 m/s 614 mmHg 86%
    21:00 -3°C° 0,3 mm 4 m/s 614 mmHg 86%
    22:00 -3°C° 0,2 mm 4 m/s 614 mmHg 87%
    23:00 -3°C° 0,2 mm 4 m/s 614 mmHg 87%

    Depois de amanhã, 19 Dezembro, Terça-feira

    Tempo Temperatura Precipitação Vento Pressão Humidade
    00:00 -3°C° 0,2 mm 4 m/s 614 mmHg 88%
    01:00 -3°C° 0,1 mm 4 m/s 614 mmHg 88%
    02:00 -4°C° 0,1 mm 4 m/s 614 mmHg 88%
    03:00 -4°C° 0,1 mm 4 m/s 614 mmHg 88%
    04:00 -5°C° 0 mm 4 m/s 614 mmHg 89%
    05:00 -6°C° 0 mm 3 m/s 614 mmHg 89%
    06:00 -6°C° 0 mm 3 m/s 614 mmHg 89%
    07:00 -6°C° 0 mm 3 m/s 614 mmHg 85%
    08:00 -6°C° 0 mm 3 m/s 615 mmHg 82%
    09:00 -6°C° 0 mm 3 m/s 616 mmHg 79%
    10:00 -4°C° 0 mm 3 m/s 616 mmHg 72%
    11:00 -2°C° 0 mm 2 m/s 617 mmHg 66%
    12:00 -1°C° 0 mm 2 m/s 618 mmHg 60%
    13:00 -1°C° 0 mm 2 m/s 617 mmHg 62%
    14:00 -2°C° 0 mm 2 m/s 617 mmHg 64%
    15:00 -2°C° 0 mm 2 m/s 617 mmHg 66%
    16:00 -4°C° 0 mm 2 m/s 616 mmHg 71%
    17:00 -5°C° 0 mm 2 m/s 616 mmHg 76%
    18:00 -7°C° 0 mm 2 m/s 616 mmHg 81%
    19:00 -7°C° 0 mm 2 m/s 616 mmHg 79%
    20:00 -7°C° 0 mm 2 m/s 616 mmHg 77%
    21:00 -7°C° 0 mm 2 m/s 616 mmHg 74%
    22:00 -7°C° 0 mm 2 m/s 617 mmHg 73%
    23:00 -7°C° 0 mm 2 m/s 617 mmHg 72%

    20 Dezembro, Quarta-feira

    Tempo Temperatura Precipitação Vento Pressão Humidade
    00:00 -7°C° 0 mm 2 m/s 617 mmHg 70%
    01:00 -7°C° 0 mm 2 m/s 617 mmHg 68%
    02:00 -7°C° 0 mm 2 m/s 617 mmHg 67%
    03:00 -7°C° 0 mm 2 m/s 617 mmHg 65%
    04:00 -7°C° 0 mm 2 m/s 617 mmHg 65%
    05:00 -7°C° 0 mm 2 m/s 617 mmHg 66%
    06:00 -7°C° 0 mm 2 m/s 617 mmHg 66%
    07:00 -6°C° 0 mm 2 m/s 617 mmHg 64%
    08:00 -4°C° 0 mm 2 m/s 618 mmHg 63%
    09:00 -3°C° 0 mm 2 m/s 619 mmHg 61%
    10:00 -1°C° 0 mm 2 m/s 619 mmHg 60%
    11:00 +1°C° 0 mm 2 m/s 620 mmHg 59%
    12:00 +2°C° 0 mm 3 m/s 620 mmHg 59%
    13:00 +1°C° 0 mm 3 m/s 620 mmHg 61%
    14:00 +1°C° 0 mm 3 m/s 619 mmHg 64%
    15:00 0°C° 0 mm 3 m/s 619 mmHg 67%
    16:00 -1°C° 0 mm 3 m/s 618 mmHg 70%
    17:00 -4°C° 0 mm 3 m/s 618 mmHg 73%
    18:00 -5°C° 0 mm 3 m/s 617 mmHg 75%
    19:00 -5°C° 0 mm 3 m/s 618 mmHg 75%
    20:00 -5°C° 0 mm 3 m/s 618 mmHg 74%
    21:00 -5°C° 0 mm 3 m/s 618 mmHg 74%
    22:00 -5°C° 0 mm 3 m/s 618 mmHg 74%
    23:00 -4°C° 0 mm 2 m/s 618 mmHg 74%

    21 Dezembro, Quinta-feira

    Tempo Temperatura Precipitação Vento Pressão Humidade
    00:00 -4°C° 0 mm 2 m/s 619 mmHg 74%
    01:00 -4°C° 0 mm 2 m/s 619 mmHg 73%
    02:00 -4°C° 0 mm 2 m/s 619 mmHg 73%
    03:00 -4°C° 0 mm 2 m/s 619 mmHg 72%
    04:00 -4°C° 0 mm 2 m/s 619 mmHg 72%
    05:00 -4°C° 0 mm 2 m/s 619 mmHg 71%
    06:00 -4°C° 0 mm 2 m/s 619 mmHg 70%
    07:00 -3°C° 0 mm 2 m/s 620 mmHg 68%
    08:00 -2°C° 0 mm 2 m/s 620 mmHg 65%
    09:00 -1°C° 0 mm 2 m/s 621 mmHg 63%
    10:00 +2°C° 0 mm 1 m/s 622 mmHg 61%
    11:00 +4°C° 0 mm 1 m/s 622 mmHg 59%
    12:00 +5°C° 0 mm 1 m/s 623 mmHg 57%
    13:00 +5°C° 0 mm 1 m/s 622 mmHg 60%
    14:00 +4°C° 0 mm 1 m/s 622 mmHg 63%
    15:00 +4°C° 0 mm 1 m/s 621 mmHg 65%
    16:00 +2°C° 0 mm 1 m/s 621 mmHg 68%
    17:00 +1°C° 0 mm 1 m/s 620 mmHg 70%
    18:00 -3°C° 0 mm 2 m/s 620 mmHg 73%
    19:00 -3°C° 0 mm 2 m/s 620 mmHg 70%
    20:00 -3°C° 0 mm 2 m/s 620 mmHg 68%
    21:00 -3°C° 0 mm 2 m/s 620 mmHg 65%
    22:00 -3°C° 0 mm 2 m/s 620 mmHg 65%
    23:00 -3°C° 0 mm 2 m/s 620 mmHg 65%

    22 Dezembro, Sexta-feira

    Tempo Temperatura Precipitação Vento Pressão Humidade
    00:00 -3°C° 0 mm 2 m/s 620 mmHg 64%
    01:00 -3°C° 0 mm 2 m/s 620 mmHg 66%
    02:00 -4°C° 0 mm 2 m/s 620 mmHg 67%
    03:00 -4°C° 0 mm 2 m/s 619 mmHg 68%
    04:00 -4°C° 0 mm 2 m/s 620 mmHg 70%
    05:00 -5°C° 0 mm 3 m/s 620 mmHg 71%
    06:00 -5°C° 0 mm 3 m/s 620 mmHg 73%
    07:00 -4°C° 0 mm 3 m/s 620 mmHg 72%
    08:00 -2°C° 0 mm 3 m/s 621 mmHg 72%
    09:00 -1°C° 0 mm 3 m/s 622 mmHg 71%
    10:00 0°C° 0 mm 3 m/s 622 mmHg 69%
    11:00 +1°C° 0 mm 3 m/s 622 mmHg 66%
    12:00 +2°C° 0 mm 3 m/s 623 mmHg 64%
    13:00 +2°C° 0 mm 3 m/s 622 mmHg 67%
    14:00 +1°C° 0 mm 3 m/s 622 mmHg 69%
    15:00 +1°C° 0 mm 3 m/s 622 mmHg 72%
    16:00 0°C° 0 mm 3 m/s 621 mmHg 76%
    17:00 -2°C° 0 mm 3 m/s 621 mmHg 79%
    18:00 -4°C° 0 mm 3 m/s 620 mmHg 83%
    19:00 -4°C° 0 mm 3 m/s 620 mmHg 82%
    20:00 -4°C° 0 mm 3 m/s 620 mmHg 82%
    21:00 -4°C° 0 mm 3 m/s 620 mmHg 81%
    22:00 -4°C° 0 mm 3 m/s 620 mmHg 81%
    23:00 -5°C° 0 mm 3 m/s 620 mmHg 80%
    Mostrar mais